Starlink 32301

operational
NORAD ID: 61664 Int'l Des: 2024-193 Owner: SPXS Country: US Constellation: starlink
LEOCIRCULAR

关于 Starlink 32301

正在加载描述...

实时位置

正在加载3D地球...

即将过境

高度历史

Altitude vs Time

uPlot chart will show altitude changes over time

两行轨道根数

1 61664U 24193D 25259.17400343 -.00002181 00000-0 -61573-4 0 9997
2 61664 53.1588 181.8947 0001243 81.4808 278.6333 15.30177237 49801
Epoch: Sep 16, 2025 • Age: 9 hours

当前状态

高度 480.6 km
速度 7.63 km/s
星下点 -18.46°S, 32.27°W
发射日期 Oct 26, 2024
运行时间 0.8 years
类型 internet

技术详情

分类 Payload
质量 730.00 kg
干质量 700.00 kg
总质量 730.00 kg
长度 0.30 m
直径 4.10 m
跨度 29.00 m
形状 Box + pan
制造商 SPXS
平台类型 Starlink V2M
阶段状态 In Orbit
所有者/国家 SPXS/US

大型星座

Loading constellations...